PAL873 RPLL-RCTP

Flight info

Callsign PAL873
Flight time 1h 51m
Altitude 33000
Route ALPAS2R ALPAS M646 POTIB Q14 TNN TNN1A
Aircraft A21N/M-SDE3FGHIRWY/LB1

Departure

Time 2026-05-04 12:59
Airport Ninoy Aquino International Airport (RPLL)

Arrival

Time 2026-05-04 14:50
Airport Taiwan Taoyuan International Airport (RCTP)
Time Latitude Longitude Altitude Speed Heading
2026-05-04 12:20 14.50533 121.00445 84 ft 0 kts 110°
2026-05-04 12:45 14.50536 121.00434 84 ft 2 kts 93°
2026-05-04 12:45 14.50535 121.00419 84 ft 2 kts 72°
2026-05-04 12:45 14.50528 121.00404 84 ft 2 kts 60°
2026-05-04 12:45 14.50522 121.00391 84 ft 2 kts 66°
2026-05-04 12:46 14.50517 121.00381 84 ft 2 kts 63°
2026-05-04 12:46 14.50516 121.00363 84 ft 2 kts 117°
2026-05-04 12:46 14.50527 121.00352 84 ft 2 kts 157°
2026-05-04 12:46 14.50542 121.00349 84 ft 2 kts 195°
2026-05-04 12:47 14.50555 121.00357 84 ft 1 kts 233°
2026-05-04 12:47 14.50558 121.00363 84 ft 1 kts 243°
2026-05-04 12:47 14.50559 121.00365 84 ft 0 kts 240°
2026-05-04 12:50 14.50558 121.00362 84 ft 1 kts 240°
2026-05-04 12:50 14.50548 121.00345 84 ft 4 kts 239°
2026-05-04 12:50 14.50526 121.00314 84 ft 6 kts 223°
2026-05-04 12:51 14.50485 121.00297 84 ft 6 kts 189°
2026-05-04 12:51 14.50440 121.00291 84 ft 6 kts 184°
2026-05-04 12:51 14.50392 121.00288 84 ft 6 kts 185°
2026-05-04 12:51 14.50343 121.00284 84 ft 7 kts 185°
2026-05-04 12:52 14.50292 121.00279 84 ft 7 kts 185°
2026-05-04 12:52 14.50240 121.00288 84 ft 7 kts 152°
2026-05-04 12:52 14.50225 121.00298 84 ft 7 kts 149°
2026-05-04 12:53 14.50175 121.00327 84 ft 8 kts 151°
2026-05-04 12:53 14.50071 121.00241 84 ft 8 kts 240°
2026-05-04 12:53 14.50024 121.00159 84 ft 6 kts 240°
2026-05-04 12:54 14.49996 121.00108 84 ft 9 kts 240°
2026-05-04 12:54 14.49960 121.00043 84 ft 10 kts 240°
2026-05-04 12:54 14.49926 120.99983 84 ft 7 kts 234°
2026-05-04 12:54 14.49885 120.99964 84 ft 3 kts 172°
2026-05-04 12:55 14.49878 120.99966 84 ft 0 kts 162°
2026-05-04 12:55 14.49873 120.99968 84 ft 1 kts 158°
2026-05-04 12:56 14.49859 120.99975 84 ft 3 kts 152°
2026-05-04 12:56 14.49834 120.99989 84 ft 4 kts 150°
2026-05-04 12:56 14.49803 121.00015 84 ft 6 kts 123°
2026-05-04 12:56 14.49805 121.00050 84 ft 5 kts 61°
2026-05-04 12:57 14.49816 121.00069 84 ft 0 kts 60°
2026-05-04 12:58 14.49817 121.00070 84 ft 1 kts 60°
2026-05-04 12:58 14.49920 121.00256 84 ft 66 kts 59°
2026-05-04 12:58 14.50268 121.00885 84 ft 133 kts 60°
2026-05-04 12:58 14.50825 121.01892 188 ft 177 kts 62°
2026-05-04 12:59 14.51434 121.02987 842 ft 177 kts 62°
2026-05-04 12:59 14.52079 121.04102 1503 ft 182 kts 61°
2026-05-04 12:59 14.52740 121.05203 2072 ft 182 kts 60°
2026-05-04 12:59 14.53433 121.06344 2313 ft 194 kts 60°
2026-05-04 13:00 14.54202 121.07581 2563 ft 207 kts 54°
2026-05-04 13:00 14.55283 121.08639 2814 ft 222 kts 40°
2026-05-04 13:00 14.56428 121.09537 3040 ft 234 kts 38°
2026-05-04 13:00 14.57904 121.10655 3266 ft 253 kts 38°
2026-05-04 13:01 14.59374 121.11755 3633 ft 265 kts 37°
2026-05-04 13:01 14.61010 121.12759 3968 ft 280 kts 19°
2026-05-04 13:01 14.62942 121.13065 4510 ft 285 kts
2026-05-04 13:01 14.64932 121.13054 5148 ft 287 kts 358°
2026-05-04 13:02 14.66905 121.12996 5747 ft 289 kts 358°
2026-05-04 13:02 14.68909 121.12744 6348 ft 289 kts 339°
2026-05-04 13:02 14.70735 121.11909 7035 ft 286 kts 329°
2026-05-04 13:02 14.72467 121.10924 7656 ft 288 kts 328°
2026-05-04 13:03 14.74211 121.09895 8274 ft 289 kts 327°
2026-05-04 13:03 14.75954 121.08858 8791 ft 290 kts 327°
2026-05-04 13:03 14.77715 121.07809 9011 ft 290 kts 327°
2026-05-04 13:03 14.79454 121.06771 9013 ft 289 kts 327°
2026-05-04 13:04 14.81214 121.05714 9225 ft 294 kts 327°
2026-05-04 13:04 14.82989 121.04647 9930 ft 292 kts 329°
2026-05-04 13:04 14.84805 121.03717 10495 ft 295 kts 333°
2026-05-04 13:04 14.86740 121.02802 10746 ft 309 kts 333°
2026-05-04 13:05 14.88731 121.01868 10989 ft 322 kts 334°
2026-05-04 13:05 14.90823 121.00880 11338 ft 330 kts 334°
2026-05-04 13:05 14.92909 120.99889 11903 ft 331 kts 334°
2026-05-04 13:05 14.95011 120.98887 12490 ft 332 kts 334°
2026-05-04 13:06 14.97148 120.97865 13042 ft 333 kts 334°
2026-05-04 13:06 14.99247 120.96859 13565 ft 335 kts 334°
2026-05-04 13:06 15.01262 120.95892 14058 ft 336 kts 335°
2026-05-04 13:06 15.03379 120.94875 14563 ft 338 kts 335°
2026-05-04 13:07 15.05517 120.93848 15062 ft 339 kts 335°
2026-05-04 13:07 15.07665 120.92817 15536 ft 342 kts 335°
2026-05-04 13:07 15.09805 120.91789 15988 ft 344 kts 335°
2026-05-04 13:07 15.12021 120.90725 16453 ft 346 kts 335°
2026-05-04 13:08 15.14172 120.89691 17004 ft 345 kts 336°
2026-05-04 13:08 15.16362 120.88638 17515 ft 346 kts 336°
2026-05-04 13:08 15.18547 120.87588 17942 ft 348 kts 336°
2026-05-04 13:08 15.20760 120.86524 18361 ft 351 kts 336°
2026-05-04 13:09 15.23006 120.85445 18780 ft 353 kts 336°
2026-05-04 13:09 15.25232 120.84373 19184 ft 356 kts 336°
2026-05-04 13:09 15.27480 120.83292 19580 ft 358 kts 336°
2026-05-04 13:09 15.29750 120.82199 19967 ft 361 kts 336°
2026-05-04 13:10 15.32063 120.81085 20352 ft 363 kts 337°
2026-05-04 13:10 15.34363 120.79978 20722 ft 366 kts 337°
2026-05-04 13:10 15.36667 120.78869 21083 ft 368 kts 337°
2026-05-04 13:10 15.38994 120.77748 21438 ft 370 kts 337°
2026-05-04 13:11 15.41340 120.76617 21785 ft 373 kts 337°
2026-05-04 13:11 15.43711 120.75474 22124 ft 375 kts 337°
2026-05-04 13:11 15.46086 120.74335 22453 ft 377 kts 338°
2026-05-04 13:11 15.48499 120.73301 22774 ft 379 kts 341°
2026-05-04 13:12 15.51032 120.72397 23095 ft 380 kts 345°
2026-05-04 13:12 15.53560 120.71629 23403 ft 382 kts 346°
2026-05-04 13:12 15.56129 120.70872 23708 ft 384 kts 346°
2026-05-04 13:12 15.58717 120.70110 24006 ft 387 kts 346°
2026-05-04 13:13 15.61315 120.69344 24300 ft 389 kts 346°
2026-05-04 13:13 15.63919 120.68572 24586 ft 391 kts 346°
2026-05-04 13:13 15.66539 120.67795 24866 ft 393 kts 346°
2026-05-04 13:13 15.69162 120.67016 25139 ft 395 kts 346°
2026-05-04 13:14 15.71838 120.66215 25414 ft 397 kts 346°
2026-05-04 13:14 15.74509 120.65413 25676 ft 400 kts 346°
2026-05-04 13:14 15.77179 120.64611 25931 ft 402 kts 346°
2026-05-04 13:14 15.79869 120.63804 26183 ft 404 kts 346°
2026-05-04 13:15 15.82576 120.62991 26428 ft 406 kts 346°
2026-05-04 13:15 15.85282 120.62180 26667 ft 408 kts 347°
2026-05-04 13:15 15.88037 120.61353 26904 ft 410 kts 347°
2026-05-04 13:15 15.90745 120.60540 27132 ft 411 kts 347°
2026-05-04 13:16 15.93508 120.59711 27359 ft 413 kts 347°
2026-05-04 13:16 15.96293 120.58875 27584 ft 415 kts 347°
2026-05-04 13:16 15.99079 120.58038 27806 ft 417 kts 347°
2026-05-04 13:16 16.01871 120.57199 28025 ft 419 kts 347°
2026-05-04 13:17 16.04682 120.56354 28241 ft 421 kts 347°
2026-05-04 13:17 16.07480 120.55513 28454 ft 423 kts 347°
2026-05-04 13:17 16.10340 120.54652 28668 ft 424 kts 347°
2026-05-04 13:17 16.13183 120.53798 28879 ft 426 kts 347°
2026-05-04 13:18 16.15995 120.52952 29081 ft 428 kts 347°
2026-05-04 13:18 16.18822 120.52101 29282 ft 430 kts 347°
2026-05-04 13:18 16.21677 120.51242 29480 ft 432 kts 347°
2026-05-04 13:18 16.24549 120.50377 29677 ft 433 kts 347°
2026-05-04 13:19 16.27424 120.49511 29870 ft 435 kts 347°
2026-05-04 13:19 16.30356 120.48628 30063 ft 437 kts 347°
2026-05-04 13:19 16.33281 120.47746 30252 ft 439 kts 347°
2026-05-04 13:19 16.36227 120.46858 30438 ft 440 kts 347°
2026-05-04 13:20 16.39128 120.45983 30620 ft 442 kts 347°
2026-05-04 13:20 16.42054 120.45100 30799 ft 443 kts 347°
2026-05-04 13:20 16.45076 120.44189 30980 ft 445 kts 347°
2026-05-04 13:20 16.48059 120.43288 31157 ft 447 kts 347°
2026-05-04 13:21 16.51020 120.42394 31325 ft 448 kts 347°
2026-05-04 13:21 16.54023 120.41487 31492 ft 450 kts 347°
2026-05-04 13:21 16.57038 120.40576 31656 ft 451 kts 347°
2026-05-04 13:21 16.60043 120.39668 31816 ft 453 kts 346°
2026-05-04 13:22 16.63049 120.38759 31974 ft 454 kts 347°
2026-05-04 13:22 16.66120 120.37927 32130 ft 454 kts 350°
2026-05-04 13:22 16.69202 120.37296 32283 ft 454 kts 354°
2026-05-04 13:22 16.72330 120.36864 32433 ft 454 kts 357°
2026-05-04 13:23 16.75493 120.36641 32579 ft 454 kts
2026-05-04 13:23 16.78690 120.36630 32723 ft 454 kts
2026-05-04 13:23 16.81807 120.36826 32860 ft 454 kts
2026-05-04 13:24 16.88121 120.37550 32926 ft 455 kts
2026-05-04 13:24 16.94388 120.38305 32924 ft 455 kts
2026-05-04 13:25 17.03808 120.39420 32922 ft 456 kts
2026-05-04 13:25 17.10102 120.40160 32922 ft 457 kts
2026-05-04 13:26 17.16692 120.40938 32922 ft 458 kts
2026-05-04 13:26 17.22893 120.41670 32922 ft 458 kts
2026-05-04 13:27 17.29231 120.42416 32922 ft 458 kts
2026-05-04 13:27 17.35541 120.43156 32922 ft 458 kts
2026-05-04 13:28 17.41879 120.43902 32922 ft 458 kts
2026-05-04 13:28 17.48196 120.44647 32922 ft 458 kts
2026-05-04 13:29 17.54507 120.45392 32922 ft 458 kts
2026-05-04 13:29 17.60834 120.46140 32922 ft 458 kts
2026-05-04 13:30 17.67178 120.46890 32922 ft 458 kts
2026-05-04 13:30 17.73494 120.47634 32922 ft 458 kts
2026-05-04 13:31 17.79826 120.48382 32922 ft 458 kts
2026-05-04 13:31 17.86141 120.49129 32922 ft 458 kts
2026-05-04 13:32 17.92454 120.49879 32922 ft 458 kts
2026-05-04 13:32 17.98772 120.50629 32922 ft 458 kts
2026-05-04 13:33 18.05183 120.51388 32922 ft 458 kts
2026-05-04 13:33 18.11500 120.52137 32922 ft 458 kts
2026-05-04 13:34 18.17853 120.52879 32921 ft 458 kts
2026-05-04 13:34 18.24221 120.53410 32922 ft 459 kts
2026-05-04 13:35 18.33767 120.54160 32922 ft 459 kts
2026-05-04 13:36 18.40136 120.54668 32922 ft 459 kts
2026-05-04 13:36 18.46464 120.55176 32922 ft 459 kts
2026-05-04 13:37 18.52831 120.55688 32922 ft 459 kts
2026-05-04 13:37 18.59150 120.56197 32922 ft 459 kts
2026-05-04 13:38 18.65532 120.56711 32922 ft 459 kts
2026-05-04 13:38 18.71914 120.57222 32922 ft 459 kts
2026-05-04 13:39 18.78255 120.57729 32922 ft 459 kts
2026-05-04 13:39 18.84630 120.58241 32922 ft 459 kts
2026-05-04 13:40 18.90945 120.58751 32921 ft 459 kts
2026-05-04 13:40 18.97394 120.59274 32920 ft 463 kts
2026-05-04 13:41 19.03831 120.59797 32921 ft 467 kts
2026-05-04 13:41 19.10302 120.60317 32922 ft 469 kts
2026-05-04 13:42 19.20101 120.61105 32922 ft 469 kts
2026-05-04 13:42 19.26614 120.61632 32922 ft 469 kts
2026-05-04 13:43 19.33107 120.62160 32922 ft 469 kts
2026-05-04 13:43 19.39577 120.62685 32922 ft 469 kts
2026-05-04 13:44 19.46082 120.63210 32922 ft 469 kts
2026-05-04 13:44 19.52615 120.63736 32922 ft 469 kts
2026-05-04 13:45 19.59087 120.64260 32922 ft 469 kts
2026-05-04 13:45 19.65604 120.64790 32922 ft 469 kts
2026-05-04 13:46 19.72098 120.65318 32922 ft 469 kts
2026-05-04 13:46 19.78649 120.65851 32922 ft 469 kts
2026-05-04 13:47 19.85117 120.66377 32922 ft 469 kts
2026-05-04 13:47 19.91629 120.66908 32922 ft 469 kts
2026-05-04 13:48 19.98085 120.67436 32922 ft 469 kts
2026-05-04 13:48 20.04628 120.67969 32922 ft 469 kts
2026-05-04 13:49 20.11169 120.68504 32921 ft 469 kts
2026-05-04 13:49 20.17633 120.69034 32922 ft 469 kts
2026-05-04 13:50 20.24160 120.69569 32922 ft 469 kts
2026-05-04 13:50 20.30636 120.70100 32922 ft 469 kts
2026-05-04 13:51 20.37165 120.70635 32926 ft 469 kts
2026-05-04 13:51 20.43741 120.71175 32947 ft 469 kts
2026-05-04 13:52 20.53575 120.71983 32998 ft 469 kts
2026-05-04 13:53 20.60092 120.72520 33017 ft 469 kts
2026-05-04 13:53 20.66591 120.73056 33026 ft 469 kts
2026-05-04 13:54 20.76333 120.73860 33030 ft 469 kts
2026-05-04 13:55 20.86058 120.74666 33030 ft 469 kts
2026-05-04 13:55 20.95819 120.75256 33030 ft 471 kts
2026-05-04 13:56 21.02358 120.74827 33030 ft 472 kts 354°
2026-05-04 13:57 21.11582 120.72909 33031 ft 469 kts 347°
2026-05-04 13:58 21.24537 120.69559 33030 ft 467 kts 347°
2026-05-04 13:58 21.34021 120.67133 33030 ft 467 kts 347°
2026-05-04 13:59 21.40341 120.65516 33030 ft 467 kts 347°
2026-05-04 14:00 21.49882 120.63075 33030 ft 467 kts 347°
2026-05-04 14:00 21.59400 120.60632 33030 ft 467 kts 347°
2026-05-04 14:01 21.65762 120.58993 33030 ft 467 kts 347°
2026-05-04 14:02 21.75272 120.56545 33030 ft 467 kts 347°
2026-05-04 14:02 21.81616 120.54909 33030 ft 467 kts 347°
2026-05-04 14:03 21.87953 120.53271 33030 ft 467 kts 347°
2026-05-04 14:03 21.94337 120.51623 33030 ft 467 kts 347°
2026-05-04 14:04 22.03840 120.49170 33030 ft 467 kts 347°
2026-05-04 14:04 22.10220 120.47520 33035 ft 467 kts 347°
2026-05-04 14:05 22.19657 120.45080 33052 ft 467 kts 347°
2026-05-04 14:06 22.25976 120.43443 33057 ft 467 kts 347°
2026-05-04 14:06 22.32284 120.41808 33058 ft 467 kts 347°
2026-05-04 14:07 22.38587 120.40173 33058 ft 467 kts 347°
2026-05-04 14:07 22.44874 120.38539 33058 ft 467 kts 347°
2026-05-04 14:08 22.51208 120.36893 33058 ft 467 kts 347°
2026-05-04 14:08 22.57488 120.35259 33058 ft 467 kts 347°
2026-05-04 14:09 22.66906 120.32806 33058 ft 467 kts 347°
2026-05-04 14:10 22.76340 120.30348 33058 ft 467 kts 347°
2026-05-04 14:10 22.82637 120.28703 33058 ft 467 kts 347°
2026-05-04 14:11 22.88950 120.27049 33058 ft 467 kts 347°
2026-05-04 14:11 22.98338 120.24595 33058 ft 469 kts 346°
2026-05-04 14:12 23.04671 120.22947 33057 ft 471 kts 347°
2026-05-04 14:13 23.14151 120.21484 33058 ft 471 kts 356°
2026-05-04 14:13 23.20731 120.21486 33058 ft 471 kts
2026-05-04 14:14 23.27252 120.22179 33059 ft 471 kts
2026-05-04 14:14 23.33066 120.22903 33058 ft 471 kts
2026-05-04 14:15 23.46071 120.24479 31908 ft 475 kts
2026-05-04 14:16 23.52622 120.25263 30425 ft 475 kts
2026-05-04 14:16 23.55880 120.25654 29945 ft 469 kts
2026-05-04 14:17 23.62316 120.26427 28753 ft 464 kts
2026-05-04 14:17 23.65476 120.26807 28261 ft 459 kts
2026-05-04 14:17 23.71683 120.27926 27333 ft 448 kts 14°
2026-05-04 14:18 23.74695 120.28833 26879 ft 442 kts 18°
2026-05-04 14:18 23.80480 120.30830 25984 ft 432 kts 19°
2026-05-04 14:19 23.86154 120.32813 25098 ft 423 kts 19°
2026-05-04 14:19 23.88950 120.33786 24657 ft 419 kts 19°
2026-05-04 14:19 23.91700 120.34742 24222 ft 415 kts 19°
2026-05-04 14:19 23.94424 120.35687 23785 ft 412 kts 19°
2026-05-04 14:20 23.97166 120.36639 23347 ft 408 kts 19°
2026-05-04 14:20 23.99855 120.37573 22912 ft 405 kts 19°
2026-05-04 14:20 24.02516 120.38496 22481 ft 402 kts 19°
2026-05-04 14:21 24.07803 120.40333 21614 ft 396 kts 19°
2026-05-04 14:21 24.10422 120.41243 21180 ft 393 kts 19°
2026-05-04 14:21 24.13009 120.42142 20749 ft 390 kts 19°
2026-05-04 14:21 24.15611 120.43047 20327 ft 386 kts 19°
2026-05-04 14:22 24.18170 120.43937 19917 ft 383 kts 19°
2026-05-04 14:22 24.20684 120.44812 19501 ft 380 kts 19°
2026-05-04 14:22 24.23194 120.45686 19078 ft 377 kts 19°
2026-05-04 14:22 24.25696 120.46558 18654 ft 374 kts 19°
2026-05-04 14:23 24.30613 120.48273 17810 ft 369 kts 19°
2026-05-04 14:23 24.33024 120.49113 17393 ft 366 kts 19°
2026-05-04 14:23 24.35432 120.49954 16976 ft 363 kts 19°
2026-05-04 14:24 24.37844 120.50796 16555 ft 360 kts 19°
2026-05-04 14:24 24.40203 120.51620 16140 ft 358 kts 19°
2026-05-04 14:24 24.42577 120.52450 15723 ft 355 kts 19°
2026-05-04 14:24 24.44915 120.53267 15309 ft 353 kts 19°
2026-05-04 14:25 24.47258 120.54086 14894 ft 350 kts 19°
2026-05-04 14:25 24.51888 120.55706 14066 ft 345 kts 19°
2026-05-04 14:25 24.54156 120.56500 13654 ft 343 kts 19°
2026-05-04 14:26 24.56406 120.57288 13250 ft 341 kts 19°
2026-05-04 14:26 24.58641 120.58072 12841 ft 338 kts 19°
2026-05-04 14:26 24.60841 120.58843 12679 ft 327 kts 19°
2026-05-04 14:26 24.62968 120.59588 12573 ft 314 kts 19°
2026-05-04 14:27 24.65021 120.60307 12453 ft 302 kts 19°
2026-05-04 14:27 24.66973 120.60992 12332 ft 291 kts 19°
2026-05-04 14:27 24.68902 120.61487 12115 ft 285 kts
2026-05-04 14:27 24.70808 120.60962 11756 ft 285 kts 328°
2026-05-04 14:28 24.72210 120.59485 11403 ft 283 kts 301°
2026-05-04 14:28 24.72857 120.57494 11224 ft 280 kts 274°
2026-05-04 14:28 24.72758 120.55358 11194 ft 281 kts 253°
2026-05-04 14:28 24.71913 120.53445 11180 ft 278 kts 227°
2026-05-04 14:29 24.69024 120.50631 11179 ft 277 kts 217°
2026-05-04 14:29 24.66093 120.47943 11173 ft 277 kts 213°
2026-05-04 14:30 24.64364 120.47124 11157 ft 272 kts 183°
2026-05-04 14:30 24.62520 120.47331 11173 ft 269 kts 157°
2026-05-04 14:30 24.59949 120.50092 11184 ft 265 kts 108°
2026-05-04 14:31 24.59695 120.52071 11188 ft 266 kts 84°
2026-05-04 14:31 24.61503 120.55570 11203 ft 271 kts 43°
2026-05-04 14:32 24.64376 120.58262 11195 ft 271 kts 41°
2026-05-04 14:32 24.65818 120.59618 11194 ft 271 kts 42°
2026-05-04 14:32 24.67231 120.60962 11193 ft 270 kts 42°
2026-05-04 14:32 24.68801 120.62128 11171 ft 273 kts 20°
2026-05-04 14:33 24.70691 120.62343 11183 ft 278 kts 351°
2026-05-04 14:33 24.72488 120.61570 11184 ft 281 kts 324°
2026-05-04 14:33 24.73796 120.59975 11182 ft 282 kts 297°
2026-05-04 14:33 24.74311 120.57916 11178 ft 282 kts 269°
2026-05-04 14:34 24.73920 120.55804 11174 ft 280 kts 241°
2026-05-04 14:34 24.72730 120.54121 11181 ft 277 kts 220°
2026-05-04 14:34 24.71269 120.52750 11177 ft 277 kts 217°
2026-05-04 14:34 24.69774 120.51389 11173 ft 277 kts 218°
2026-05-04 14:35 24.68282 120.50005 11172 ft 277 kts 218°
2026-05-04 14:35 24.66820 120.48627 11171 ft 277 kts 219°
2026-05-04 14:35 24.65233 120.47472 11154 ft 274 kts 197°
2026-05-04 14:35 24.63350 120.47204 11165 ft 270 kts 169°
2026-05-04 14:36 24.61610 120.47881 11172 ft 267 kts 144°
2026-05-04 14:36 24.60326 120.49309 11178 ft 266 kts 119°
2026-05-04 14:36 24.59725 120.51224 11183 ft 266 kts 94°
2026-05-04 14:36 24.59936 120.53234 11187 ft 267 kts 69°
2026-05-04 14:37 24.60944 120.54981 11192 ft 270 kts 45°
2026-05-04 14:37 24.62349 120.56367 11197 ft 271 kts 42°
2026-05-04 14:37 24.63782 120.57704 11194 ft 271 kts 41°
2026-05-04 14:37 24.65189 120.59023 11192 ft 271 kts 42°
2026-05-04 14:38 24.65847 120.59645 11192 ft 271 kts 42°
2026-05-04 14:38 24.66617 120.60376 11191 ft 271 kts 42°
2026-05-04 14:38 24.68049 120.61749 11106 ft 285 kts 43°
2026-05-04 14:38 24.69550 120.63216 10743 ft 291 kts 43°
2026-05-04 14:39 24.71052 120.64708 10450 ft 287 kts 46°
2026-05-04 14:39 24.72264 120.66433 10302 ft 285 kts 59°
2026-05-04 14:39 24.73249 120.68298 10173 ft 281 kts 62°
2026-05-04 14:40 24.75174 120.72021 9373 ft 281 kts 60°
2026-05-04 14:40 24.76167 120.73877 8996 ft 279 kts 60°
2026-05-04 14:40 24.77148 120.75685 8631 ft 277 kts 60°
2026-05-04 14:40 24.78134 120.77487 8262 ft 275 kts 59°
2026-05-04 14:41 24.79123 120.79285 7894 ft 273 kts 59°
2026-05-04 14:41 24.80109 120.81072 7495 ft 273 kts 59°
2026-05-04 14:41 24.82052 120.84590 6808 ft 268 kts 59°
2026-05-04 14:42 24.83976 120.88075 6100 ft 263 kts 59°
2026-05-04 14:42 24.84915 120.89775 5751 ft 262 kts 59°
2026-05-04 14:42 24.85796 120.91372 5422 ft 260 kts 59°
2026-05-04 14:43 24.86780 120.93156 5051 ft 258 kts 61°
2026-05-04 14:43 24.87548 120.94922 4713 ft 255 kts 68°
2026-05-04 14:43 24.87960 120.96054 4509 ft 253 kts 69°
2026-05-04 14:43 24.88304 120.96945 4347 ft 252 kts 65°
2026-05-04 14:44 24.89202 120.98606 4056 ft 250 kts 55°
2026-05-04 14:44 24.90279 121.00053 3996 ft 237 kts 50°
2026-05-04 14:44 24.91358 121.01369 3991 ft 226 kts 49°
2026-05-04 14:44 24.92377 121.02618 3989 ft 216 kts 50°
2026-05-04 14:45 24.93362 121.03845 4044 ft 208 kts 50°
2026-05-04 14:45 24.94257 121.04976 3953 ft 193 kts 51°
2026-05-04 14:45 24.95120 121.06075 3685 ft 180 kts 51°
2026-05-04 14:45 24.95897 121.07069 3447 ft 166 kts 51°
2026-05-04 14:46 24.96622 121.07997 3252 ft 152 kts 51°
2026-05-04 14:46 24.97261 121.08817 3070 ft 150 kts 51°
2026-05-04 14:46 24.97955 121.09705 2878 ft 149 kts 51°
2026-05-04 14:46 24.98632 121.10572 2688 ft 149 kts 51°
2026-05-04 14:47 24.99308 121.11435 2494 ft 148 kts 51°
2026-05-04 14:47 24.99977 121.12288 2298 ft 148 kts 51°
2026-05-04 14:47 25.00646 121.13141 2098 ft 147 kts 51°
2026-05-04 14:47 25.01319 121.13998 1896 ft 147 kts 51°
2026-05-04 14:48 25.01983 121.14843 1696 ft 146 kts 51°
2026-05-04 14:48 25.02647 121.15688 1498 ft 146 kts 51°
2026-05-04 14:48 25.03307 121.16528 1304 ft 145 kts 51°
2026-05-04 14:48 25.03966 121.17368 1113 ft 145 kts 51°
2026-05-04 14:49 25.04633 121.18215 921 ft 144 kts 51°
2026-05-04 14:49 25.05283 121.19042 733 ft 144 kts 51°
2026-05-04 14:49 25.05940 121.19878 542 ft 144 kts 51°
2026-05-04 14:49 25.06598 121.20715 350 ft 143 kts 51°
2026-05-04 14:50 25.07244 121.21537 169 ft 142 kts 51°
2026-05-04 14:50 25.07859 121.22327 114 ft 125 kts 50°
2026-05-04 14:50 25.08322 121.22913 113 ft 77 kts 48°
2026-05-04 14:50 25.08561 121.23216 113 ft 27 kts 49°
2026-05-04 14:51 25.08651 121.23344 113 ft 18 kts 59°
2026-05-04 14:51 25.08693 121.23458 113 ft 15 kts 76°
2026-05-04 14:51 25.08709 121.23538 113 ft 9 kts 78°
2026-05-04 14:51 25.08721 121.23602 113 ft 8 kts 81°
2026-05-04 14:52 25.08696 121.23654 113 ft 8 kts 157°
2026-05-04 14:52 25.08644 121.23645 113 ft 7 kts 220°
2026-05-04 14:52 25.08612 121.23605 113 ft 8 kts 230°
2026-05-04 14:52 25.08571 121.23552 113 ft 8 kts 229°
2026-05-04 14:53 25.08530 121.23499 113 ft 9 kts 229°
2026-05-04 14:53 25.08486 121.23443 113 ft 10 kts 229°
2026-05-04 14:53 25.08439 121.23383 113 ft 10 kts 229°
2026-05-04 14:53 25.08388 121.23319 113 ft 12 kts 229°
2026-05-04 14:54 25.08327 121.23241 113 ft 14 kts 229°
2026-05-04 14:54 25.08256 121.23151 113 ft 16 kts 229°
2026-05-04 14:54 25.08177 121.23051 113 ft 17 kts 229°
2026-05-04 14:54 25.08100 121.22952 113 ft 16 kts 229°
2026-05-04 14:55 25.08025 121.22856 113 ft 16 kts 229°
2026-05-04 14:55 25.07949 121.22761 113 ft 16 kts 229°
2026-05-04 14:55 25.07875 121.22667 113 ft 16 kts 229°
2026-05-04 14:55 25.07802 121.22574 113 ft 15 kts 229°
2026-05-04 14:56 25.07729 121.22482 113 ft 15 kts 229°
2026-05-04 14:56 25.07656 121.22388 113 ft 17 kts 229°
2026-05-04 14:56 25.07575 121.22285 113 ft 17 kts 229°
2026-05-04 14:56 25.07494 121.22182 113 ft 17 kts 229°
2026-05-04 14:57 25.07423 121.22092 113 ft 8 kts 229°
2026-05-04 14:57 25.07385 121.22059 113 ft 7 kts 197°
2026-05-04 14:57 25.07337 121.22074 113 ft 7 kts 144°
2026-05-04 14:57 25.07287 121.22121 113 ft 11 kts 139°
2026-05-04 14:58 25.07212 121.22193 113 ft 18 kts 139°
2026-05-04 14:58 25.07100 121.22301 113 ft 24 kts 139°
2026-05-04 14:58 25.06972 121.22424 113 ft 23 kts 138°
2026-05-04 14:58 25.06853 121.22537 113 ft 18 kts 140°
2026-05-04 14:59 25.06767 121.22620 113 ft 16 kts 137°
2026-05-04 14:59 25.06718 121.22667 113 ft 7 kts 138°
2026-05-04 14:59 25.06674 121.22781 113 ft 13 kts 53°
2026-05-04 15:00 25.06750 121.22877 113 ft 19 kts 50°
2026-05-04 15:00 25.06842 121.22996 113 ft 20 kts 49°
2026-05-04 15:00 25.06932 121.23109 113 ft 19 kts 49°
2026-05-04 15:01 25.07100 121.23321 113 ft 17 kts 49°
2026-05-04 15:01 25.07174 121.23416 113 ft 17 kts 49°
2026-05-04 15:01 25.07254 121.23519 113 ft 16 kts 49°
2026-05-04 15:01 25.07329 121.23613 113 ft 16 kts 49°
2026-05-04 15:02 25.07400 121.23705 113 ft 15 kts 49°
2026-05-04 15:02 25.07462 121.23774 113 ft 10 kts 26°
2026-05-04 15:02 25.07529 121.23753 113 ft 11 kts 321°
2026-05-04 15:02 25.07586 121.23698 113 ft 9 kts 321°
2026-05-04 15:03 25.07646 121.23696 113 ft 9 kts 39°
2026-05-04 15:03 25.07693 121.23755 113 ft 10 kts 49°
2026-05-04 15:03 25.07751 121.23829 113 ft 14 kts 49°
2026-05-04 15:03 25.07816 121.23911 113 ft 14 kts 49°
2026-05-04 15:04 25.07879 121.23993 113 ft 14 kts 49°
2026-05-04 15:04 25.07941 121.24071 113 ft 9 kts 49°
2026-05-04 15:04 25.07971 121.24106 113 ft 4 kts 26°
2026-05-04 15:04 25.08001 121.24097 113 ft 4 kts 326°
2026-05-04 15:05 25.08027 121.24074 113 ft 5 kts 320°
2026-05-04 15:05 25.08056 121.24046 113 ft 4 kts 319°
2026-05-04 15:05 25.08072 121.24030 113 ft 1 kts 317°
2026-05-04 15:05 25.08077 121.24026 113 ft 0 kts 319°